Home   Weather   Cuiabá   Past weeks

Flag for Brazil Past Weather in Cuiabá, Mato Grosso, Brazil — Yesterday and Last 2 Weeks

Now
77 °F

Clear.


Feels Like: 78 °F
Forecast: 74 / 90 °F
Wind: 7 mph from North

Location: Cuiaba Aeroporto

Current Time: May 25, 2017 at 6:40:46 am

Latest Report: May 25, 2017 at 6:00 am


Visibility: 10 mi

Pressure: 29.98 "Hg

Humidity: 89%

Dew Point: 73 °F

Location of CuiabáLocation

Past Weather in Cuiabá — Graph

°F

Cuiabá Temperature Yesterday

Maximum temperature yesterday: 93 °F (at 12:00 pm)
Minimum temperature yesterday: 73 °F (at 4:00 am)
Average temperature yesterday: 83 °F

High & Low Weather Summary for the Past Weeks

 TemperatureHumidityPressure
High95 °F (May 12, 2:00 pm)94% (May 10, 5:00 am)30.04 "Hg (May 10, 5:00 am)
Low72 °F (May 11, 3:00 am)28% (May 12, 4:00 pm)29.74 "Hg (May 19, 3:00 pm)
Average81 °F79%29.91 "Hg
* Reported May 10 5:00 am — May 25 5:00 am, Cuiabá. Weather by CustomWeather, © 2017

Note: Actual official high and low records may vary slightly from our data, if they occured in-between our weather recording intervals... More about our weather records

Advertising

Cuiabá Weather History for the Previous 24 Hours

Scroll right to see more
 ConditionsComfort  
Time TempWeatherWind HumidityBarometerVisibility
5:00 am
Thu, May 25
75 °FClear.5 mph94%29.95 "Hg10 mi
4:00 am77 °FClear.8 mph94%29.95 "Hg10 mi
3:00 am77 °FClear.7 mph94%29.95 "Hg10 mi
2:00 am77 °FClear.No wind94%29.95 "Hg10 mi
1:00 am77 °FClear.2 mph94%29.95 "Hg10 mi
12:00 am77 °FClear.No wind94%29.98 "Hg10 mi
11:00 pm
Wed, May 24
79 °FClear.2 mph89%29.98 "Hg10 mi
10:00 pm79 °FClear.No wind94%29.95 "Hg10 mi
9:00 pm79 °FClear.5 mph94%29.95 "Hg10 mi
8:00 pm82 °FClear.3 mph79%29.95 "Hg10 mi
7:00 pm84 °FPassing clouds.5 mph79%29.92 "HgN/A
6:00 pm84 °FPassing clouds.5 mph74%29.89 "HgN/A
5:00 pm91 °FPassing clouds.6 mph49%29.89 "HgN/A
4:00 pm93 °FPassing clouds.6 mph47%29.89 "HgN/A
3:00 pm93 °FScattered clouds.6 mph47%29.89 "HgN/A
2:00 pm93 °FScattered clouds.6 mph49%29.92 "HgN/A
1:00 pm93 °FScattered clouds.7 mph49%29.95 "HgN/A
12:00 pm93 °FSunny.6 mph53%29.98 "Hg10 mi
11:00 am90 °FSunny.5 mph59%30.01 "Hg10 mi
10:00 am88 °FSunny.5 mph62%30.01 "Hg10 mi
9:00 am84 °FSunny.8 mph74%30.01 "Hg10 mi
8:00 am81 °FSunny.7 mph94%30.01 "Hg10 mi
7:00 am75 °FSunny.5 mph94%29.98 "Hg10 mi
6:00 am75 °FFog.5 mph89%29.95 "Hg5 mi
Weather by CustomWeather, © 2017

See weather overviewHow to use our weather pages